| time (UTC) | temp F | wind direction | speed knots | gust knots | rain 1hr in | rain 24hr in | rain mn in | humidity % | barometer mb |
| 20260504081519 | 38 | 232 | 0.0 | 0.0 | 0.00 | 0.01 | 0.00 | 72 | 1005.5 |
| 20260504060108 | 35 | 274 | 0.0 | 0.0 | 0.00 | 0.01 | 0.00 | 73 | 1005.5 |
| 20260504050022 | 35 | 274 | 0.0 | 0.0 | 0.00 | 0.01 | 0.01 | 71 | 1005.8 |
| 20260504044528 | 35 | 275 | 0.0 | 0.0 | 0.00 | 0.01 | 0.01 | 72 | 1005.8 |
| 20260504043028 | 36 | 275 | 0.0 | 2.6 | 0.00 | 0.01 | 0.01 | 71 | 1006.1 |
| 20260504041517 | 36 | 275 | 0.0 | 0.0 | 0.00 | 0.01 | 0.01 | 71 | 1006.1 |
| 20260504040020 | 35 | 275 | 0.0 | 0.0 | 0.00 | 0.01 | 0.01 | 72 | 1006.0 |
| 20260504034618 | 35 | 274 | 0.0 | 0.0 | 0.00 | 0.01 | 0.01 | 73 | 1006.0 |
| 20260504033048 | 36 | 275 | 0.0 | 0.0 | 0.00 | 0.01 | 0.01 | 73 | 1006.0 |
| 20260504031545 | 36 | 275 | 0.0 | 0.0 | 0.00 | 0.01 | 0.01 | 74 | 1006.1 |
| 20260504030046 | 36 | 274 | 0.0 | 0.0 | 0.00 | 0.01 | 0.01 | 73 | 1006.0 |
| 20260504024549 | 37 | 274 | 0.0 | 0.0 | 0.00 | 0.01 | 0.01 | 73 | 1006.1 |
| 20260504024546 | 37 | 275 | 0.0 | 0.0 | 0.00 | 0.01 | 0.01 | 73 | 1006.1 |
| 20260504023038 | 36 | 274 | 0.0 | 0.0 | 0.00 | 0.01 | 0.01 | 73 | 1006.2 |
| 20260504021537 | 37 | 274 | 0.0 | 0.0 | 0.00 | 0.01 | 0.01 | 71 | 1006.3 |
| 20260504020008 | 37 | 275 | 0.0 | 0.0 | 0.00 | 0.01 | 0.01 | 71 | 1006.2 |
| 20260504014505 | 37 | 274 | 0.0 | 0.0 | 0.00 | 0.01 | 0.01 | 70 | 1006.3 |
| 20260504013001 | 38 | 275 | 0.0 | 0.0 | 0.00 | 0.01 | 0.01 | 70 | 1006.2 |
| 20260504011601 | 39 | 275 | 0.0 | 0.0 | 0.00 | 0.01 | 0.01 | 68 | 1006.1 |
| 20260504011500 | 39 | 274 | 0.0 | 0.0 | 0.00 | 0.01 | 0.01 | 69 | 1006.1 |
| 20260504010100 | 39 | 274 | 0.0 | 0.0 | 0.00 | 0.01 | 0.01 | 67 | 1006.0 |
| 20260504004611 | 40 | 274 | 0.0 | 0.0 | 0.00 | 0.01 | 0.01 | 68 | 1006.0 |
| 20260504003058 | 40 | 275 | 0.0 | 0.0 | 0.00 | 0.01 | 0.01 | 66 | 1005.9 |
| 20260504001601 | 41 | 275 | 0.0 | 0.0 | 0.00 | 0.01 | 0.01 | 65 | 1005.9 |
| 20260504000101 | 41 | 275 | 0.0 | 0.0 | 0.00 | 0.01 | 0.01 | 64 | 1005.7 |
| 20260503234554 | 42 | 274 | 0.0 | 0.0 | 0.00 | 0.01 | 0.01 | 63 | 1005.8 |
| 20260503233052 | 43 | 275 | 0.0 | 0.0 | 0.00 | 0.01 | 0.01 | 63 | 1005.8 |
| 20260503231551 | 43 | 275 | 0.0 | 0.0 | 0.00 | 0.01 | 0.01 | 62 | 1005.8 |
| 20260503224552 | 43 | 274 | 0.0 | 0.0 | 0.00 | 0.02 | 0.01 | 61 | 1005.8 |
| 20260503223047 | 43 | 274 | 0.0 | 0.0 | 0.00 | 0.02 | 0.01 | 62 | 1005.8 |
| 20260503221546 | 43 | 288 | 0.0 | 0.0 | 0.00 | 0.02 | 0.01 | 61 | 1005.8 |
| 20260503220046 | 43 | 274 | 0.0 | 0.0 | 0.00 | 0.02 | 0.01 | 62 | 1005.8 |
| 20260503214547 | 43 | 275 | 0.0 | 0.0 | 0.00 | 0.02 | 0.01 | 62 | 1005.8 |
| 20260503213041 | 43 | 284 | 0.0 | 7.0 | 0.00 | 0.02 | 0.01 | 62 | 1005.8 |
| 20260503211554 | 43 | 292 | 0.0 | 0.0 | 0.00 | 0.02 | 0.01 | 63 | 1005.8 |
| 20260503210040 | 42 | 321 | 0.0 | 0.0 | 0.00 | 0.02 | 0.01 | 63 | 1005.8 |
| 20260503204540 | 42 | 315 | 0.0 | 0.0 | 0.00 | 0.02 | 0.01 | 63 | 1005.8 |
| 20260503203008 | 42 | 298 | 0.9 | 7.0 | 0.00 | 0.02 | 0.01 | 63 | 1005.8 |
| 20260503201508 | 43 | 281 | 0.0 | 10.4 | 0.00 | 0.02 | 0.01 | 62 | 1005.8 |
| 20260503200052 | 43 | 304 | 0.0 | 0.9 | 0.00 | 0.02 | 0.01 | 61 | 1005.6 |
| 20260503194535 | 43 | 308 | 0.0 | 1.7 | 0.00 | 0.02 | 0.01 | 61 | 1005.7 |
| 20260503193005 | 43 | 271 | 0.0 | 0.9 | 0.00 | 0.02 | 0.01 | 64 | 1005.9 |
| 20260503191509 | 41 | 279 | 0.0 | 0.0 | 0.00 | 0.02 | 0.01 | 69 | 1006.1 |
| 20260503184629 | 42 | 281 | 0.0 | 17.4 | 0.00 | 0.02 | 0.01 | 66 | 1006.3 |
| 20260503183102 | 43 | 283 | 0.0 | 10.4 | 0.00 | 0.02 | 0.01 | 62 | 1006.2 |
| 20260503181615 | 44 | 302 | 1.7 | 13.9 | 0.00 | 0.02 | 0.01 | 59 | 1006.1 |
| 20260503180115 | 43 | 295 | 0.9 | 11.3 | 0.00 | 0.02 | 0.01 | 61 | 1006.2 |
| 20260503174559 | 43 | 306 | 0.0 | 13.0 | 0.00 | 0.02 | 0.01 | 62 | 1006.2 |
| 20260503173108 | 42 | 302 | 0.0 | 1.7 | 0.00 | 0.02 | 0.01 | 63 | 1006.3 |
| 20260503171554 | 42 | 300 | 0.0 | 0.0 | 0.00 | 0.02 | 0.01 | 62 | 1006.2 |